Location: Berkeley
(37.8716°N, 122.2727°W)
Time: 08:52:13
(UTC-07:00)

Tiangong 1 - Visible Passes

Search period start: 23 August 2017 00:00
Search period end: 02 September 2017 00:00
Orbit: 311 x 337 km, 42.8° (Epoch: 23 August)

Date Brightness Start Highest point End Pass type
(mag) Time Alt. Az. Time Alt. Az. Time Alt. Az.
23 Aug 0.9 20:23:38 10° WNW 20:26:25 67° NNE 20:28:58 11° ESE visible
23 Aug 3.9 21:59:38 10° W 21:59:57 12° WSW 21:59:57 12° WSW visible
24 Aug 1.2 20:40:03 10° WNW 20:42:46 50° SSW 20:44:33 18° SE visible
25 Aug 2.8 20:56:45 10° W 20:58:54 20° SW 21:00:07 15° S visible
